Weather History for Aberdeen, SD

Change the Weather History Date:

Tuesday, January 15, 2013

  Actual Average Record
Temperature  
Mean Temperature 19 °F 12 °F  
Max Temperature 35 °F 22 °F 48 °F (1942)
Min Temperature 2 °F 1 °F -42 °F (2009)
Degree Days  
Heating Degree Days 46 53  
Month to date heating degree days 737 795  
Since 1 July heating degree days 4161 4286  
Cooling Degree Days 0 0  
Month to date cooling degree days 0 0  
Year to date cooling degree days 0 0  
Moisture  
Dew Point 9 °F    
Average Humidity 77    
Maximum Humidity 87    
Minimum Humidity 66    
Precipitation  
Precipitation 0.02 in 0.02 in 0.70 in (1912)
Month to date precipitation 0.07 0.26  
Year to date precipitation 0.07 0.26  
Snow  
Snow 0.20 in - - ()
Month to date snowfall 1.3  
Since 1 July snowfall 15.2  
Snow Depth 2.00 in    
Sea Level Pressure  
Sea Level Pressure 29.99 in    
Wind  
Wind Speed 13 mph (South)    
Max Wind Speed 20 mph    
Max Gust Speed 25 mph    
Visibility 9 miles    
Events Snow    
T = Trace of Precipitation, MM = Missing Value Source: NWS Daily Summary

Daily Weather History Graph

Daily Weather History Graph

Search for Another Location

Airport:

Trip Planner

Search our weather history database for the weather conditions in past years. The results will help you decide how hot, cold, wet, or windy it might be!

Date:

Astronomy

Jan. 15, 2013 Rise Set
Actual Time 8:09 AM CST 5:17 PM CST
Civil Twilight 7:36 AM CST 5:50 PM CST
Nautical Twilight 6:59 AM CST 6:26 PM CST
Astronomical Twilight 6:24 AM CST 7:02 PM CST
Moon 10:00 AM CST (1/15) 10:25 PM CST (1/15)
Length of Visible Light 10h 13m
Length of Day
9h 07m
Waxing Crescent, 19% of the Moon is Illuminated
Jan 15
Waxing Crescent
Jan 18
First Quarter
Jan 26
Full
Feb 3
Last Quarter
Feb 10
New

Hourly Weather History & Observations

Time (CST) Temp. Windchill Dew Point Humidity Pressure Visibility Wind Dir Wind Speed Gust Speed Precip Events Conditions
12:53 AM 1.9 °F -9.2 °F -2.0 °F 83% 30.26 in 10.0 mi SSE 5.8 mph - N/A   Overcast
1:53 AM 5.0 °F -9.1 °F 1.0 °F 84% 30.23 in 10.0 mi SSE 9.2 mph - N/A   Overcast
2:53 AM 7.0 °F -5.7 °F 1.9 °F 80% 30.22 in 10.0 mi South 8.1 mph - N/A   Overcast
3:53 AM 8.1 °F -7.0 °F 3.0 °F 80% 30.20 in 10.0 mi South 11.5 mph - N/A   Overcast
4:53 AM 8.1 °F -4.3 °F 3.0 °F 80% 30.17 in 10.0 mi South 8.1 mph - N/A   Overcast
5:53 AM 6.8 °F -10.0 °F 1.4 °F 79% 30.05 in 10.0 mi South 13.8 mph - N/A   Partly Cloudy
6:53 AM 3.9 °F -12.2 °F -0.9 °F 80% 30.15 in 10.0 mi South 11.5 mph - N/A   Clear
7:53 AM 1.9 °F -15.5 °F -4.0 °F 76% 30.15 in 10.0 mi South 12.7 mph - N/A   Clear
8:53 AM 1.9 °F -14.7 °F -4.0 °F 76% 30.17 in 10.0 mi South 11.5 mph - N/A   Partly Cloudy
9:53 AM 5.0 °F -13.0 °F -2.0 °F 73% 30.17 in 10.0 mi South 15.0 mph - N/A   Overcast
10:53 AM 7.0 °F -10.4 °F -0.9 °F 70% 30.14 in 10.0 mi South 15.0 mph - N/A   Overcast
11:53 AM 10.4 °F -5.4 °F 1.4 °F 67% 30.02 in 10.0 mi South 13.8 mph - N/A   Overcast
12:53 PM 12.0 °F -2.7 °F 3.9 °F 70% 30.07 in 10.0 mi South 12.7 mph - N/A   Clear
1:53 PM 14.0 °F -2.0 °F 6.1 °F 71% 30.04 in 10.0 mi South 16.1 mph - N/A   Clear
2:53 PM 16.0 °F 2.3 °F 8.1 °F 71% 30.02 in 10.0 mi South 12.7 mph - N/A   Clear
3:53 PM 17.1 °F 3.6 °F 9.0 °F 71% 30.01 in 10.0 mi South 12.7 mph - N/A   Clear
4:53 PM 17.1 °F 3.6 °F 9.0 °F 71% 30.00 in 10.0 mi South 12.7 mph - N/A   Overcast
5:53 PM 18.0 °F 3.6 °F 10.0 °F 71% 29.96 in 10.0 mi South 15.0 mph - N/A   Overcast
6:53 PM 19.0 °F 4.5 °F 12.0 °F 74% 29.93 in 10.0 mi South 16.1 mph - N/A   Overcast
7:53 PM 21.0 °F 6.6 °F 16.0 °F 81% 29.88 in 2.5 mi SSW 17.3 mph - 0.00 in Snow Light Snow
8:12 PM 21.2 °F 7.8 °F 17.6 °F 86% 29.79 in 5.0 mi SSW 15.0 mph - 0.01 in Snow Light Snow
8:53 PM 23.0 °F 9.2 °F 18.0 °F 81% 29.83 in 2.5 mi SSW 17.3 mph - 0.01 in Snow Light Snow
9:06 PM 24.8 °F 11.5 °F 19.4 °F 80% 29.75 in 4.0 mi SSW 17.3 mph - 0.00 in Snow Light Snow
9:42 PM 24.8 °F 11.9 °F 21.2 °F 86% 29.71 in 10.0 mi SSW 16.1 mph - 0.00 in   Overcast
9:53 PM 26.1 °F 13.1 °F 21.9 °F 84% 29.79 in 10.0 mi SSW 17.3 mph - 0.00 in   Overcast
10:53 PM 30.0 °F 19.5 °F 26.1 °F 85% 29.75 in 10.0 mi SW 13.8 mph - 0.01 in   Overcast
11:40 PM 33.8 °F 23.2 °F 30.2 °F 87% 29.66 in 10.0 mi West 17.3 mph - N/A   Overcast
11:53 PM 35.1 °F 24.5 °F 30.0 °F 82% 29.72 in 10.0 mi West 18.4 mph - N/A   Overcast